Location: Sun City Center
(27.6996°N, 82.3528°W)
Time: 19:56:33
(UTC-04:00)

Cosmos 2084 Rocket - Visible Passes

Search period start: 27 May 2015 00:00
Search period end: 06 June 2015 00:00
Orbit: 525 x 665 km, 62.8° (Epoch: 27 May)

Date Brightness Start Highest point End Pass type
(mag) Time Alt. Az. Time Alt. Az. Time Alt. Az.
27 May 5.9 04:17:00 10° N 04:20:30 23° NE 04:24:11 10° ESE visible
27 May 4.5 05:56:16 10° WNW 06:00:04 26° WSW 06:03:53 10° S visible
28 May 4.7 04:25:58 10° NNW 04:30:11 44° ENE 04:34:35 10° SE visible
28 May 5.3 06:07:17 10° W 06:09:34 13° WSW 06:11:38 10° SW visible
29 May 3.5 04:35:20 10° NNW 04:39:47 89° ENE 04:44:24 10° SSE visible
30 May 6.4 03:07:05 10° NNE 03:09:31 15° NE 03:11:29 12° E visible
30 May 4.4 04:45:04 10° NW 04:47:52 33° WNW 04:47:52 33° WNW visible
31 May 5.7 03:15:34 10° N 03:18:08 24° NNE 03:18:08 24° NNE visible
01 Jun 6.0 03:24:38 10° NNW 03:25:46 17° NNW 03:25:46 17° NNW visible
03 Jun 6.7 02:05:27 10° NNE 02:05:40 11° NNE 02:05:40 11° NNE visible
04 Jun 6.7 02:14:08 10° N 02:14:12 10° N 02:14:12 10° N visible
